• In Deutschland
  • Länderverzeichnis
  • Für 7 Tage
  • Wassertemperatur
  • Satellitenkarten
  • Wetterkarte
  • Widgets
  • user-avatar
    Anmelden

    Stündliche Wetter Düren

    Heute, 18 Oktober, Mittwoch

    Zeit Temperatur Niederschläge Wind Luftdruck Luftfeuchtigkeit
    00:00 +14°C° 0 mm 1 m/S 751 mmHg 89%
    01:00 +14°C° 0 mm 1 m/S 750 mmHg 88%
    02:00 +14°C° 0 mm 2 m/S 750 mmHg 88%
    03:00 +13°C° 0 mm 2 m/S 749 mmHg 87%
    04:00 +13°C° 0 mm 2 m/S 749 mmHg 87%
    05:00 +13°C° 0 mm 2 m/S 749 mmHg 87%
    06:00 +12°C° 0 mm 2 m/S 749 mmHg 86%
    07:00 +14°C° 0 mm 2 m/S 749 mmHg 80%
    08:00 +15°C° 0 mm 2 m/S 749 mmHg 73%
    09:00 +17°C° 0 mm 2 m/S 749 mmHg 67%
    10:00 +18°C° 0 mm 2 m/S 749 mmHg 64%
    11:00 +19°C° 0 mm 2 m/S 748 mmHg 61%
    12:00 +21°C° 0 mm 2 m/S 748 mmHg 58%
    13:00 +21°C° 0 mm 2 m/S 748 mmHg 60%
    14:00 +21°C° 0 mm 2 m/S 748 mmHg 63%
    15:00 +21°C° 0 mm 2 m/S 748 mmHg 66%
    16:00 +20°C° 0 mm 1 m/S 748 mmHg 72%
    17:00 +18°C° 0 mm 1 m/S 748 mmHg 79%
    18:00 +16°C° 0 mm 1 m/S 748 mmHg 86%
    19:00 +15°C° 0 mm 1 m/S 748 mmHg 87%
    20:00 +15°C° 0 mm 1 m/S 748 mmHg 89%
    21:00 +14°C° 0 mm 2 m/S 748 mmHg 90%
    22:00 +14°C° 0 mm 2 m/S 748 mmHg 90%
    23:00 +14°C° 0 mm 2 m/S 748 mmHg 90%

    Morgen, 19 Oktober, Donnerstag

    Zeit Temperatur Niederschläge Wind Luftdruck Luftfeuchtigkeit
    00:00 +13°C° 0 mm 2 m/S 748 mmHg 91%
    01:00 +13°C° 0 mm 2 m/S 748 mmHg 91%
    02:00 +13°C° 0 mm 2 m/S 748 mmHg 91%
    03:00 +13°C° 0 mm 2 m/S 747 mmHg 91%
    04:00 +13°C° 0 mm 2 m/S 747 mmHg 90%
    05:00 +12°C° 0 mm 2 m/S 747 mmHg 90%
    06:00 +12°C° 0 mm 2 m/S 747 mmHg 90%
    07:00 +14°C° 0 mm 2 m/S 747 mmHg 82%
    08:00 +16°C° 0 mm 3 m/S 747 mmHg 75%
    09:00 +18°C° 0 mm 3 m/S 747 mmHg 67%
    10:00 +19°C° 0 mm 3 m/S 747 mmHg 65%
    11:00 +20°C° 0 mm 4 m/S 747 mmHg 62%
    12:00 +21°C° 0 mm 4 m/S 747 mmHg 59%
    13:00 +21°C° 0 mm 4 m/S 746 mmHg 60%
    14:00 +21°C° 0 mm 3 m/S 746 mmHg 61%
    15:00 +21°C° 0 mm 3 m/S 746 mmHg 62%
    16:00 +20°C° 0 mm 3 m/S 746 mmHg 63%
    17:00 +19°C° 0 mm 3 m/S 746 mmHg 65%
    18:00 +17°C° 0 mm 3 m/S 746 mmHg 66%
    19:00 +17°C° 0 mm 3 m/S 746 mmHg 65%
    20:00 +17°C° 0 mm 3 m/S 746 mmHg 64%
    21:00 +17°C° 0 mm 3 m/S 746 mmHg 64%
    22:00 +17°C° 0 mm 3 m/S 746 mmHg 63%
    23:00 +16°C° 0 mm 3 m/S 746 mmHg 63%

    übermorgen, 20 Oktober, Freitag

    Zeit Temperatur Niederschläge Wind Luftdruck Luftfeuchtigkeit
    00:00 +16°C° 0 mm 3 m/S 746 mmHg 62%
    01:00 +16°C° 0 mm 3 m/S 746 mmHg 62%
    02:00 +16°C° 0 mm 3 m/S 746 mmHg 62%
    03:00 +16°C° 0 mm 3 m/S 746 mmHg 62%
    04:00 +16°C° 0 mm 3 m/S 746 mmHg 62%
    05:00 +16°C° 0 mm 3 m/S 746 mmHg 62%
    06:00 +16°C° 0 mm 3 m/S 747 mmHg 62%
    07:00 +15°C° 0,1 mm 4 m/S 747 mmHg 64%
    08:00 +15°C° 0,1 mm 4 m/S 747 mmHg 66%
    09:00 +17°C° 0,1 mm 4 m/S 748 mmHg 67%
    10:00 +17°C° 0,5 mm 4 m/S 748 mmHg 71%
    11:00 +17°C° 0,5 mm 4 m/S 748 mmHg 76%
    12:00 +17°C° 0,5 mm 4 m/S 748 mmHg 80%
    13:00 +15°C° 0,2 mm 4 m/S 748 mmHg 81%
    14:00 +15°C° 0,2 mm 4 m/S 748 mmHg 82%
    15:00 +15°C° 0,2 mm 4 m/S 748 mmHg 84%
    16:00 +14°C° 0,1 mm 4 m/S 748 mmHg 85%
    17:00 +14°C° 0,1 mm 3 m/S 748 mmHg 87%
    18:00 +13°C° 0,1 mm 3 m/S 749 mmHg 89%
    19:00 +12°C° 0 mm 3 m/S 749 mmHg 88%
    20:00 +12°C° 0 mm 3 m/S 749 mmHg 88%
    21:00 +12°C° 0 mm 3 m/S 749 mmHg 88%
    22:00 +11°C° 0 mm 3 m/S 749 mmHg 88%
    23:00 +11°C° 0 mm 3 m/S 749 mmHg 88%

    21 Oktober, Samstag

    Zeit Temperatur Niederschläge Wind Luftdruck Luftfeuchtigkeit
    00:00 +10°C° 0 mm 3 m/S 749 mmHg 88%
    01:00 +10°C° 0 mm 3 m/S 749 mmHg 87%
    02:00 +10°C° 0 mm 3 m/S 749 mmHg 86%
    03:00 +10°C° 0 mm 3 m/S 748 mmHg 84%
    04:00 +10°C° 0 mm 4 m/S 748 mmHg 84%
    05:00 +11°C° 0 mm 4 m/S 748 mmHg 84%
    06:00 +11°C° 0 mm 4 m/S 748 mmHg 84%
    07:00 +12°C° 0,2 mm 5 m/S 748 mmHg 84%
    08:00 +13°C° 0,2 mm 5 m/S 748 mmHg 84%
    09:00 +14°C° 0,2 mm 5 m/S 748 mmHg 83%
    10:00 +14°C° 0,9 mm 5 m/S 748 mmHg 84%
    11:00 +14°C° 0,9 mm 5 m/S 748 mmHg 85%
    12:00 +14°C° 0,9 mm 5 m/S 747 mmHg 86%
    13:00 +14°C° 0 mm 5 m/S 747 mmHg 84%
    14:00 +14°C° 0 mm 4 m/S 747 mmHg 82%
    15:00 +14°C° 0 mm 4 m/S 747 mmHg 81%
    16:00 +14°C° 0 mm 4 m/S 747 mmHg 82%
    17:00 +13°C° 0 mm 4 m/S 748 mmHg 83%
    18:00 +12°C° 0 mm 4 m/S 748 mmHg 84%
    19:00 +12°C° 0 mm 4 m/S 748 mmHg 83%
    20:00 +10°C° 0 mm 5 m/S 748 mmHg 82%
    21:00 +10°C° 0 mm 5 m/S 748 mmHg 81%
    22:00 +10°C° 0 mm 5 m/S 748 mmHg 80%
    23:00 +9°C° 0 mm 5 m/S 748 mmHg 79%

    22 Oktober, Sonntag

    Zeit Temperatur Niederschläge Wind Luftdruck Luftfeuchtigkeit
    00:00 +9°C° 0 mm 5 m/S 748 mmHg 78%
    01:00 +9°C° 0 mm 5 m/S 748 mmHg 79%
    02:00 +8°C° 0 mm 5 m/S 748 mmHg 79%
    03:00 +8°C° 0 mm 6 m/S 747 mmHg 80%
    04:00 +8°C° 0 mm 6 m/S 747 mmHg 80%
    05:00 +8°C° 0 mm 6 m/S 747 mmHg 80%
    06:00 +8°C° 0 mm 6 m/S 747 mmHg 79%
    07:00 +9°C° 0,1 mm 6 m/S 748 mmHg 79%
    08:00 +9°C° 0,1 mm 6 m/S 748 mmHg 78%
    09:00 +9°C° 0,1 mm 6 m/S 748 mmHg 78%
    10:00 +10°C° 0,1 mm 6 m/S 748 mmHg 75%
    11:00 +10°C° 0,1 mm 6 m/S 748 mmHg 73%
    12:00 +11°C° 0,1 mm 6 m/S 748 mmHg 71%
    13:00 +10°C° 0,2 mm 6 m/S 748 mmHg 72%
    14:00 +10°C° 0,2 mm 5 m/S 748 mmHg 73%
    15:00 +10°C° 0,2 mm 5 m/S 749 mmHg 75%
    16:00 +10°C° 0 mm 4 m/S 749 mmHg 77%
    17:00 +8°C° 0 mm 4 m/S 749 mmHg 80%
    18:00 +8°C° 0 mm 4 m/S 750 mmHg 82%
    19:00 +8°C° 0 mm 3 m/S 750 mmHg 83%
    20:00 +8°C° 0 mm 3 m/S 750 mmHg 84%
    21:00 +8°C° 0 mm 3 m/S 751 mmHg 85%
    22:00 +8°C° 0 mm 3 m/S 751 mmHg 86%
    23:00 +8°C° 0 mm 3 m/S 751 mmHg 86%

    23 Oktober, Montag

    Zeit Temperatur Niederschläge Wind Luftdruck Luftfeuchtigkeit
    00:00 +8°C° 0 mm 3 m/S 751 mmHg 86%
    01:00 +7°C° 0,1 mm 4 m/S 751 mmHg 86%
    02:00 +7°C° 0,1 mm 4 m/S 751 mmHg 86%
    03:00 +7°C° 0,1 mm 4 m/S 752 mmHg 87%
    04:00 +8°C° 0 mm 3 m/S 752 mmHg 87%
    05:00 +8°C° 0 mm 3 m/S 752 mmHg 87%
    06:00 +8°C° 0 mm 3 m/S 753 mmHg 87%
    07:00 +9°C° 0 mm 3 m/S 753 mmHg 84%
    08:00 +9°C° 0 mm 3 m/S 754 mmHg 82%
    09:00 +10°C° 0 mm 3 m/S 754 mmHg 80%
    10:00 +11°C° 0 mm 3 m/S 754 mmHg 76%
    11:00 +12°C° 0 mm 3 m/S 754 mmHg 71%
    12:00 +13°C° 0 mm 3 m/S 754 mmHg 67%
    13:00 +13°C° 0 mm 3 m/S 754 mmHg 68%
    14:00 +13°C° 0 mm 3 m/S 754 mmHg 69%
    15:00 +14°C° 0 mm 2 m/S 754 mmHg 70%
    16:00 +13°C° 0 mm 2 m/S 755 mmHg 76%
    17:00 +12°C° 0 mm 2 m/S 755 mmHg 81%
    18:00 +10°C° 0 mm 1 m/S 755 mmHg 86%
    19:00 +9°C° 0 mm 2 m/S 756 mmHg 88%
    20:00 +9°C° 0 mm 2 m/S 756 mmHg 89%
    21:00 +9°C° 0 mm 2 m/S 756 mmHg 90%
    22:00 +9°C° 0 mm 2 m/S 756 mmHg 91%
    23:00 +8°C° 0 mm 2 m/S 756 mmHg 91%
    Mehr zeigen